APX752 EGNT-EGNR

Flight info

Callsign APX752
Flight time 0h 32m
Altitude 17000
Route GIRLI P18 POL/N0359F180 DCT WAL DCT KEGUN
Aircraft C25B/M-SDE2E3FGHRWXY/LB1

Departure

Time 2026-04-26 18:21
Airport Newcastle International Airport (EGNT)

Arrival

Time 2026-04-26 18:53
Airport Hawarden Airport (EGNR)
Time Latitude Longitude Altitude Speed Heading
2026-04-26 18:07 55.03293 -1.69773 259 ft 0 kts 149°
2026-04-26 18:12 55.03286 -1.69776 259 ft 3 kts 239°
2026-04-26 18:12 55.03321 -1.69812 259 ft 12 kts 343°
2026-04-26 18:12 55.03429 -1.69845 266 ft 13 kts 356°
2026-04-26 18:13 55.03439 -1.69845 266 ft 0 kts
2026-04-26 18:13 55.03440 -1.69845 266 ft 2 kts
2026-04-26 18:14 55.03521 -1.69831 267 ft 16 kts 359°
2026-04-26 18:14 55.03584 -1.69976 267 ft 17 kts 276°
2026-04-26 18:14 55.03594 -1.70184 268 ft 18 kts 274°
2026-04-26 18:14 55.03604 -1.70400 268 ft 16 kts 285°
2026-04-26 18:15 55.03695 -1.70436 267 ft 16 kts
2026-04-26 18:15 55.03783 -1.70353 263 ft 14 kts 98°
2026-04-26 18:15 55.03775 -1.70188 264 ft 14 kts 91°
2026-04-26 18:15 55.03773 -1.70013 265 ft 15 kts 90°
2026-04-26 18:16 55.03784 -1.69837 266 ft 15 kts 80°
2026-04-26 18:16 55.03848 -1.69461 263 ft 18 kts 66°
2026-04-26 18:16 55.03901 -1.69256 261 ft 19 kts 66°
2026-04-26 18:17 55.03959 -1.69040 259 ft 21 kts 65°
2026-04-26 18:17 55.04020 -1.68806 257 ft 22 kts 66°
2026-04-26 18:17 55.04087 -1.68561 255 ft 23 kts 65°
2026-04-26 18:17 55.04155 -1.68301 252 ft 24 kts 66°
2026-04-26 18:18 55.04227 -1.68032 249 ft 25 kts 65°
2026-04-26 18:18 55.04301 -1.67752 246 ft 26 kts 65°
2026-04-26 18:18 55.04335 -1.67568 244 ft 13 kts 94°
2026-04-26 18:18 55.04323 -1.67420 243 ft 10 kts 114°
2026-04-26 18:19 55.04317 -1.67403 243 ft 0 kts 130°
2026-04-26 18:19 55.04312 -1.67395 243 ft 5 kts 142°
2026-04-26 18:19 55.04237 -1.67359 244 ft 13 kts 191°
2026-04-26 18:19 55.04211 -1.67403 244 ft 0 kts 245°
2026-04-26 18:20 55.04179 -1.67521 245 ft 49 kts 245°
2026-04-26 18:20 55.03848 -1.68739 449 ft 156 kts 243°
2026-04-26 18:20 55.03682 -1.69342 768 ft 171 kts 243°
2026-04-26 18:21 55.02627 -1.72943 2636 ft 231 kts 238°
2026-04-26 18:21 55.01444 -1.74938 3673 ft 242 kts 214°
2026-04-26 18:21 54.99918 -1.76185 4839 ft 240 kts 203°
2026-04-26 18:21 54.98334 -1.77291 5601 ft 255 kts 204°
2026-04-26 18:22 54.96660 -1.78421 6494 ft 259 kts 203°
2026-04-26 18:22 54.94972 -1.79564 7387 ft 262 kts 205°
2026-04-26 18:22 54.93270 -1.80741 8273 ft 265 kts 204°
2026-04-26 18:22 54.91560 -1.81896 9115 ft 269 kts 204°
2026-04-26 18:23 54.89808 -1.83105 9983 ft 273 kts 204°
2026-04-26 18:23 54.88027 -1.84300 10778 ft 276 kts 204°
2026-04-26 18:23 54.86230 -1.85538 11549 ft 280 kts 204°
2026-04-26 18:23 54.84416 -1.86743 12302 ft 284 kts 201°
2026-04-26 18:24 54.82453 -1.87368 13012 ft 291 kts 186°
2026-04-26 18:24 54.80409 -1.87242 13738 ft 298 kts 173°
2026-04-26 18:24 54.78405 -1.86193 14412 ft 304 kts 161°
2026-04-26 18:24 54.76467 -1.84635 15016 ft 309 kts 158°
2026-04-26 18:25 54.74502 -1.83049 15654 ft 313 kts 158°
2026-04-26 18:25 54.72486 -1.81599 16223 ft 315 kts 167°
2026-04-26 18:25 54.70324 -1.81035 16832 ft 315 kts 178°
2026-04-26 18:25 54.68138 -1.81276 17406 ft 315 kts 193°
2026-04-26 18:26 54.65970 -1.81992 17984 ft 319 kts 191°
2026-04-26 18:26 54.63759 -1.82623 18554 ft 323 kts 192°
2026-04-26 18:26 54.61543 -1.83355 19075 ft 326 kts 193°
2026-04-26 18:26 54.59335 -1.84057 19614 ft 327 kts 193°
2026-04-26 18:27 54.57062 -1.84779 20165 ft 329 kts 193°
2026-04-26 18:27 54.54832 -1.85469 20696 ft 331 kts 192°
2026-04-26 18:27 54.52560 -1.86192 21238 ft 332 kts 193°
2026-04-26 18:27 54.50282 -1.86906 21778 ft 334 kts 193°
2026-04-26 18:28 54.47986 -1.87631 22228 ft 338 kts 193°
2026-04-26 18:28 54.45616 -1.88378 22253 ft 354 kts 193°
2026-04-26 18:28 54.43142 -1.89152 22265 ft 367 kts 193°
2026-04-26 18:28 54.40604 -1.89947 22264 ft 373 kts 192°
2026-04-26 18:29 54.38057 -1.90736 22267 ft 370 kts 193°
2026-04-26 18:29 54.35532 -1.91529 22258 ft 367 kts 193°
2026-04-26 18:29 54.33027 -1.92306 22263 ft 365 kts 193°
2026-04-26 18:29 54.30534 -1.93091 22263 ft 364 kts 193°
2026-04-26 18:30 54.28081 -1.93845 22258 ft 362 kts 193°
2026-04-26 18:30 54.25602 -1.94623 22259 ft 361 kts 193°
2026-04-26 18:30 54.23132 -1.95383 22257 ft 360 kts 193°
2026-04-26 18:30 54.20666 -1.96156 22252 ft 359 kts 192°
2026-04-26 18:31 54.18210 -1.96908 22252 ft 358 kts 193°
2026-04-26 18:31 54.15753 -1.97675 22251 ft 357 kts 192°
2026-04-26 18:31 54.13303 -1.98424 22253 ft 357 kts 192°
2026-04-26 18:31 54.10863 -1.99180 22252 ft 356 kts 192°
2026-04-26 18:32 54.08419 -1.99917 22254 ft 356 kts 192°
2026-04-26 18:32 54.05981 -2.00663 22252 ft 356 kts 192°
2026-04-26 18:32 54.03538 -2.01391 22252 ft 356 kts 192°
2026-04-26 18:32 54.01129 -2.02121 22252 ft 356 kts 192°
2026-04-26 18:33 53.98698 -2.02867 22253 ft 356 kts 193°
2026-04-26 18:33 53.97052 -2.03385 22254 ft 355 kts 193°
2026-04-26 18:33 53.93829 -2.04374 22253 ft 355 kts 192°
2026-04-26 18:33 53.92190 -2.04877 22253 ft 355 kts 193°
2026-04-26 18:34 53.88972 -2.05865 22252 ft 355 kts 192°
2026-04-26 18:34 53.86546 -2.06611 22258 ft 354 kts 193°
2026-04-26 18:34 53.84907 -2.07118 22261 ft 354 kts 192°
2026-04-26 18:34 53.82480 -2.07851 22257 ft 354 kts 192°
2026-04-26 18:35 53.80086 -2.08596 22252 ft 354 kts 193°
2026-04-26 18:35 53.77759 -2.09842 22256 ft 350 kts 205°
2026-04-26 18:35 53.75592 -2.11755 22038 ft 354 kts 214°
2026-04-26 18:35 53.73648 -2.14399 21574 ft 364 kts 224°
2026-04-26 18:36 53.71986 -2.17685 21077 ft 373 kts 235°
2026-04-26 18:36 53.70650 -2.21449 20577 ft 371 kts 240°
2026-04-26 18:36 53.69405 -2.25178 20108 ft 358 kts 240°
2026-04-26 18:36 53.68191 -2.28788 19648 ft 348 kts 240°
2026-04-26 18:37 53.67003 -2.32299 19210 ft 341 kts 240°
2026-04-26 18:37 53.65842 -2.35745 18778 ft 335 kts 240°
2026-04-26 18:37 53.64711 -2.39094 18319 ft 330 kts 239°
2026-04-26 18:37 53.63582 -2.42430 17885 ft 325 kts 240°
2026-04-26 18:38 53.62470 -2.45718 17463 ft 321 kts 239°
2026-04-26 18:38 53.61369 -2.48955 17056 ft 317 kts 240°
2026-04-26 18:38 53.60283 -2.52165 16644 ft 313 kts 240°
2026-04-26 18:38 53.59205 -2.55317 16240 ft 309 kts 240°
2026-04-26 18:39 53.58149 -2.58441 15842 ft 305 kts 240°
2026-04-26 18:39 53.57089 -2.61523 15444 ft 303 kts 240°
2026-04-26 18:39 53.56052 -2.64589 14989 ft 302 kts 240°
2026-04-26 18:39 53.54998 -2.67650 14519 ft 302 kts 240°
2026-04-26 18:40 53.53955 -2.70715 14029 ft 301 kts 241°
2026-04-26 18:40 53.52911 -2.73752 13497 ft 299 kts 240°
2026-04-26 18:40 53.51881 -2.76763 12958 ft 295 kts 240°
2026-04-26 18:40 53.50657 -2.79486 12435 ft 292 kts 225°
2026-04-26 18:41 53.49127 -2.81719 11927 ft 289 kts 221°
2026-04-26 18:41 53.47591 -2.83876 11426 ft 286 kts 220°
2026-04-26 18:41 53.46053 -2.85974 10932 ft 283 kts 220°
2026-04-26 18:41 53.44552 -2.88037 10452 ft 281 kts 219°
2026-04-26 18:42 53.43038 -2.90106 9947 ft 280 kts 220°
2026-04-26 18:42 53.41542 -2.92171 9419 ft 278 kts 220°
2026-04-26 18:42 53.40049 -2.94211 8900 ft 276 kts 220°
2026-04-26 18:42 53.38567 -2.96251 8387 ft 275 kts 219°
2026-04-26 18:43 53.37090 -2.98265 7883 ft 270 kts 220°
2026-04-26 18:43 53.35656 -3.00238 7385 ft 264 kts 219°
2026-04-26 18:43 53.34244 -3.02159 6894 ft 259 kts 220°
2026-04-26 18:43 53.32862 -3.04054 6387 ft 255 kts 220°
2026-04-26 18:44 53.31526 -3.05868 6264 ft 237 kts 219°
2026-04-26 18:44 53.30264 -3.07603 5887 ft 233 kts 219°
2026-04-26 18:44 53.29016 -3.09316 5499 ft 232 kts 219°
2026-04-26 18:44 53.27784 -3.11039 5122 ft 230 kts 219°
2026-04-26 18:45 53.26576 -3.12734 4737 ft 229 kts 220°
2026-04-26 18:45 53.25363 -3.14452 4347 ft 228 kts 219°
2026-04-26 18:45 53.24147 -3.16149 3963 ft 226 kts 218°
2026-04-26 18:45 53.22751 -3.17284 3573 ft 225 kts 193°
2026-04-26 18:46 53.21223 -3.17715 3371 ft 216 kts 191°
2026-04-26 18:46 53.19793 -3.18098 3361 ft 202 kts 189°
2026-04-26 18:46 53.18433 -3.18446 3358 ft 196 kts 190°
2026-04-26 18:46 53.17100 -3.18791 3359 ft 192 kts 189°
2026-04-26 18:47 53.15782 -3.19138 3357 ft 192 kts 190°
2026-04-26 18:47 53.14465 -3.19480 3357 ft 191 kts 189°
2026-04-26 18:47 53.13152 -3.19822 3359 ft 189 kts 189°
2026-04-26 18:47 53.11879 -3.20147 3362 ft 181 kts 190°
2026-04-26 18:48 53.10664 -3.20454 3360 ft 172 kts 189°
2026-04-26 18:48 53.09518 -3.20735 3359 ft 165 kts 188°
2026-04-26 18:48 53.08445 -3.20247 3352 ft 163 kts 139°
2026-04-26 18:48 53.08040 -3.18553 3281 ft 168 kts 89°
2026-04-26 18:49 53.08392 -3.16672 3111 ft 174 kts 69°
2026-04-26 18:49 53.08803 -3.14821 3101 ft 167 kts 70°
2026-04-26 18:49 53.09215 -3.12993 2938 ft 173 kts 70°
2026-04-26 18:49 53.09664 -3.11085 2658 ft 180 kts 68°
2026-04-26 18:50 53.10195 -3.09143 2338 ft 187 kts 63°
2026-04-26 18:50 53.10938 -3.07502 2116 ft 175 kts 43°
2026-04-26 18:50 53.11799 -3.06115 1845 ft 171 kts 42°
2026-04-26 18:50 53.12663 -3.04790 1508 ft 165 kts 40°
2026-04-26 18:51 53.13510 -3.03570 1190 ft 156 kts 37°
2026-04-26 18:51 53.14279 -3.02561 968 ft 127 kts 33°
2026-04-26 18:51 53.14940 -3.01725 758 ft 114 kts 34°
2026-04-26 18:51 53.15556 -3.00933 599 ft 111 kts 33°
2026-04-26 18:52 53.16161 -3.00129 387 ft 111 kts 35°
2026-04-26 18:52 53.16728 -2.99322 238 ft 104 kts 35°
2026-04-26 18:52 53.17268 -2.98547 47 ft 101 kts 36°
2026-04-26 18:52 53.17749 -2.97855 12 ft 68 kts 38°
2026-04-26 18:53 53.18045 -2.97431 7 ft 53 kts 40°
2026-04-26 18:53 53.18304 -2.97056 6 ft 31 kts 41°
2026-04-26 18:53 53.18453 -2.96844 5 ft 27 kts 40°
2026-04-26 18:53 53.18511 -2.96843 5 ft 8 kts 282°
2026-04-26 18:54 53.18508 -2.96949 4 ft 10 kts 257°
2026-04-26 18:54 53.18489 -2.97077 4 ft 12 kts 256°
2026-04-26 18:54 53.18473 -2.97186 4 ft 7 kts 255°
2026-04-26 18:54 53.18459 -2.97281 4 ft 9 kts 257°
2026-04-26 18:55 53.18465 -2.97412 4 ft 14 kts 290°
2026-04-26 18:55 53.18505 -2.97565 4 ft 15 kts 288°
2026-04-26 18:55 53.18534 -2.97733 4 ft 8 kts 287°
2026-04-26 18:55 53.18564 -2.97738 4 ft 6 kts 65°
2026-04-26 18:56 53.18583 -2.97643 4 ft 11 kts 72°
2026-04-26 18:56 53.18589 -2.97511 4 ft 6 kts 144°
2026-04-26 18:56 53.18584 -2.97476 4 ft 4 kts 34°
2026-04-26 18:56 53.18591 -2.97479 4 ft 0 kts 298°